Year,Month,Day,Hour,Minute,Value (Times are PST for windgust in km/hr)
2022,05,19,17,43,6.40
2022,05,19,17,44,12.90
2022,05,19,17,45,12.90
2022,05,19,17,46,14.50
2022,05,19,17,47,14.50
2022,05,19,17,48,14.50
2022,05,19,17,49,11.30
2022,05,19,17,50,9.60
2022,05,19,17,51,12.90
2022,05,19,17,52,12.90
2022,05,19,17,53,14.50
2022,05,19,17,54,14.50
2022,05,19,17,55,16.10
2022,05,19,17,56,16.10
2022,05,19,17,57,16.10
2022,05,19,17,58,14.50
2022,05,19,17,59,11.30
2022,05,19,18,00,14.50
2022,05,19,18,01,12.90
2022,05,19,18,02,11.30
2022,05,19,18,03,11.30
2022,05,19,18,04,11.30
2022,05,19,18,05,14.50
2022,05,19,18,06,11.30
2022,05,19,18,07,6.40
2022,05,19,18,08,6.40
2022,05,19,18,09,6.40
2022,05,19,18,10,6.40
2022,05,19,18,11,8.10
2022,05,19,18,12,6.40
2022,05,19,18,13,6.40
2022,05,19,18,14,9.60
2022,05,19,18,15,6.40
2022,05,19,18,16,6.40
2022,05,19,18,17,6.40
2022,05,19,18,18,11.30
2022,05,19,18,19,6.40
2022,05,19,18,20,6.40
2022,05,19,18,21,6.40
2022,05,19,18,22,6.40
2022,05,19,18,23,6.40
2022,05,19,18,24,6.40
2022,05,19,18,25,6.40
2022,05,19,18,26,9.60
2022,05,19,18,27,6.40
2022,05,19,18,28,6.40
2022,05,19,18,29,8.10
2022,05,19,18,30,9.60
2022,05,19,18,31,6.40
2022,05,19,18,32,9.60
2022,05,19,18,33,8.10
2022,05,19,18,34,6.40
2022,05,19,18,35,4.80
2022,05,19,18,36,6.40
2022,05,19,18,37,6.40
2022,05,19,18,38,11.30
2022,05,19,18,39,9.60
2022,05,19,18,40,9.60
2022,05,19,18,41,6.40
2022,05,19,18,42,6.40
2022,05,19,18,43,6.40
2022,05,19,18,44,11.30
2022,05,19,18,45,6.40
2022,05,19,18,46,9.60
2022,05,19,18,47,6.40
2022,05,19,18,48,9.60
2022,05,19,18,49,6.40
2022,05,19,18,50,4.80
2022,05,19,18,51,11.30
2022,05,19,18,52,11.30
2022,05,19,18,53,11.30
2022,05,19,18,54,4.80
2022,05,19,18,55,6.40
2022,05,19,18,56,6.40
2022,05,19,18,57,4.80
2022,05,19,18,58,4.80
2022,05,19,18,59,4.80
2022,05,19,19,00,6.40
2022,05,19,19,01,6.40
2022,05,19,19,02,11.30
2022,05,19,19,03,12.90
2022,05,19,19,04,8.10
2022,05,19,19,05,6.40
2022,05,19,19,06,6.40
2022,05,19,19,07,3.20
2022,05,19,19,08,3.20
2022,05,19,19,09,4.80
2022,05,19,19,10,6.40
2022,05,19,19,11,4.80
2022,05,19,19,12,4.80
2022,05,19,19,13,4.80
2022,05,19,19,14,3.20
2022,05,19,19,15,3.20
2022,05,19,19,16,3.20
2022,05,19,19,17,3.20
2022,05,19,19,18,4.80
2022,05,19,19,19,3.20
2022,05,19,19,20,4.80
2022,05,19,19,21,4.80
2022,05,19,19,22,4.80
2022,05,19,19,23,6.40
2022,05,19,19,24,6.40
2022,05,19,19,25,6.40
2022,05,19,19,26,4.80
2022,05,19,19,27,4.80
2022,05,19,19,28,4.80
2022,05,19,19,29,4.80
2022,05,19,19,30,3.20
2022,05,19,19,31,4.80
2022,05,19,19,32,3.20
2022,05,19,19,33,3.20
2022,05,19,19,34,3.20
2022,05,19,21,02,3.20
2022,05,19,21,03,4.80
2022,05,19,21,04,4.80
2022,05,19,21,05,4.80
2022,05,19,21,06,4.80
2022,05,19,21,07,4.80
2022,05,19,21,08,4.80
2022,05,19,21,09,4.80
2022,05,19,21,10,4.80
2022,05,19,21,11,4.80
2022,05,19,21,12,4.80
2022,05,19,21,13,4.80
2022,05,19,21,14,4.80
2022,05,19,21,15,4.80
2022,05,19,21,16,3.20
2022,05,19,21,17,4.80
2022,05,19,21,18,4.80
2022,05,19,21,19,4.80
2022,05,19,21,20,4.80
2022,05,19,21,21,4.80
2022,05,19,21,22,4.80
2022,05,19,21,23,4.80
2022,05,19,21,24,4.80
2022,05,19,21,25,3.20
2022,05,19,21,26,3.20
2022,05,19,21,27,4.80
2022,05,19,21,28,3.20
2022,05,19,21,29,3.20
2022,05,19,21,30,3.20
2022,05,19,21,31,3.20
2022,05,19,21,32,3.20
2022,05,19,21,33,3.20
2022,05,19,21,34,3.20
2022,05,19,21,35,3.20
2022,05,19,21,36,3.20
2022,05,19,21,37,4.80
2022,05,19,21,38,4.80
2022,05,19,21,39,4.80
2022,05,19,21,40,4.80
2022,05,19,21,41,4.80
2022,05,19,21,42,4.80
2022,05,19,21,43,4.80
2022,05,19,21,44,4.80
2022,05,19,21,45,3.20
2022,05,19,21,46,3.20
2022,05,19,21,47,4.80
2022,05,19,21,48,4.80
2022,05,19,21,49,4.80
2022,05,19,21,50,4.80
2022,05,19,21,51,3.20
2022,05,19,21,52,3.20
2022,05,19,21,53,3.20
2022,05,19,21,54,3.20
2022,05,19,21,55,3.20
2022,05,19,21,56,3.20
2022,05,19,21,57,3.20
2022,05,19,22,10,4.80
2022,05,19,22,11,6.40
2022,05,19,22,12,4.80
2022,05,19,22,13,4.80
2022,05,19,22,14,4.80
2022,05,19,22,15,4.80
2022,05,19,22,16,4.80
2022,05,19,22,17,4.80
2022,05,19,22,18,4.80
2022,05,19,22,19,3.20
